TAN08 EGNX-EGNS

Flight info

Callsign TAN08
Flight time 0h 54m
Altitude 6000
Route TNT UQ4 VABKA DCT WAL L10 KELLY
Aircraft C414/L-SDFGRY/C

Departure

Time 2026-04-21 16:10
Airport East Midlands Airport (EGNX)

Arrival

Time 2026-04-21 17:04
Airport Isle of Man Airport (EGNS)
Time Latitude Longitude Altitude Speed Heading
2026-04-21 15:46 52.82695 -1.33866 290 ft 0 kts 148°
2026-04-21 16:04 52.82696 -1.33867 290 ft 2 kts 148°
2026-04-21 16:05 52.82702 -1.33873 295 ft 2 kts 146°
2026-04-21 16:05 52.82711 -1.33845 291 ft 0 kts 49°
2026-04-21 16:06 52.82727 -1.33812 291 ft 10 kts 53°
2026-04-21 16:06 52.82764 -1.33732 296 ft 6 kts 38°
2026-04-21 16:06 52.82822 -1.33717 299 ft 15 kts 353°
2026-04-21 16:06 52.82912 -1.33776 305 ft 13 kts 266°
2026-04-21 16:07 52.82909 -1.33953 304 ft 19 kts 269°
2026-04-21 16:07 52.82904 -1.34180 304 ft 18 kts 269°
2026-04-21 16:07 52.82906 -1.34367 308 ft 15 kts 269°
2026-04-21 16:07 52.82904 -1.34555 307 ft 19 kts 269°
2026-04-21 16:08 52.82939 -1.34921 312 ft 4 kts 333°
2026-04-21 16:08 52.83001 -1.34948 312 ft 21 kts 356°
2026-04-21 16:08 52.83059 -1.34856 309 ft 0 kts 103°
2026-04-21 16:09 52.83057 -1.34825 309 ft 18 kts 91°
2026-04-21 16:09 52.83071 -1.34265 303 ft 78 kts 86°
2026-04-21 16:09 52.83079 -1.33223 527 ft 101 kts 92°
2026-04-21 16:09 52.83051 -1.31955 787 ft 115 kts 86°
2026-04-21 16:10 52.82978 -1.30781 1108 ft 116 kts 87°
2026-04-21 16:10 52.82920 -1.29476 1529 ft 110 kts 87°
2026-04-21 16:10 52.82857 -1.28215 1873 ft 112 kts 88°
2026-04-21 16:10 52.82792 -1.26924 2215 ft 112 kts 88°
2026-04-21 16:11 52.82731 -1.25655 2524 ft 113 kts 85°
2026-04-21 16:11 52.83032 -1.24509 2844 ft 113 kts 59°
2026-04-21 16:11 52.83531 -1.23486 3177 ft 117 kts 45°
2026-04-21 16:11 52.84231 -1.22750 3496 ft 121 kts 29°
2026-04-21 16:12 52.85067 -1.22416 3810 ft 129 kts 12°
2026-04-21 16:12 52.85990 -1.22611 4094 ft 141 kts 350°
2026-04-21 16:12 52.86870 -1.23463 4397 ft 154 kts 324°
2026-04-21 16:12 52.87541 -1.24926 4706 ft 164 kts 308°
2026-04-21 16:13 52.88193 -1.26487 5013 ft 166 kts 310°
2026-04-21 16:13 52.88848 -1.28033 5306 ft 167 kts 310°
2026-04-21 16:13 52.89512 -1.29617 5608 ft 168 kts 309°
2026-04-21 16:13 52.90183 -1.31204 5924 ft 168 kts 309°
2026-04-21 16:14 52.90856 -1.32793 6246 ft 168 kts 309°
2026-04-21 16:14 52.91534 -1.34396 6547 ft 171 kts 309°
2026-04-21 16:14 52.92217 -1.36020 6865 ft 172 kts 308°
2026-04-21 16:14 52.92907 -1.37655 7077 ft 179 kts 308°
2026-04-21 16:15 52.93644 -1.39401 7235 ft 185 kts 307°
2026-04-21 16:15 52.94384 -1.41165 7382 ft 192 kts 308°
2026-04-21 16:15 52.95147 -1.42978 7480 ft 197 kts 307°
2026-04-21 16:15 52.95951 -1.44890 7528 ft 204 kts 307°
2026-04-21 16:16 52.96776 -1.46857 7554 ft 210 kts 308°
2026-04-21 16:16 52.97610 -1.48848 7678 ft 210 kts 307°
2026-04-21 16:16 52.98449 -1.50823 7854 ft 207 kts 307°
2026-04-21 16:16 52.99287 -1.52766 7959 ft 210 kts 307°
2026-04-21 16:17 53.00142 -1.54754 7992 ft 213 kts 307°
2026-04-21 16:17 53.01011 -1.56781 7992 ft 217 kts 307°
2026-04-21 16:17 53.01893 -1.58844 7995 ft 220 kts 306°
2026-04-21 16:17 53.02780 -1.60920 7995 ft 221 kts 307°
2026-04-21 16:18 53.03663 -1.62985 7989 ft 224 kts 308°
2026-04-21 16:18 53.04569 -1.65105 7990 ft 225 kts 307°
2026-04-21 16:18 53.05402 -1.67302 8020 ft 226 kts 294°
2026-04-21 16:18 53.05860 -1.69828 8008 ft 227 kts 283°
2026-04-21 16:19 53.06288 -1.72359 7990 ft 229 kts 286°
2026-04-21 16:19 53.06735 -1.74915 7987 ft 231 kts 285°
2026-04-21 16:19 53.07171 -1.77475 7986 ft 231 kts 285°
2026-04-21 16:19 53.07607 -1.80048 7986 ft 232 kts 285°
2026-04-21 16:20 53.08035 -1.82575 7994 ft 228 kts 284°
2026-04-21 16:20 53.08463 -1.85098 7988 ft 226 kts 284°
2026-04-21 16:20 53.08893 -1.87610 7996 ft 225 kts 285°
2026-04-21 16:20 53.09311 -1.90075 8191 ft 218 kts 285°
2026-04-21 16:21 53.09717 -1.92472 8388 ft 213 kts 284°
2026-04-21 16:21 53.10117 -1.94851 8482 ft 216 kts 284°
2026-04-21 16:21 53.10526 -1.97283 8485 ft 220 kts 284°
2026-04-21 16:21 53.10943 -1.99753 8487 ft 223 kts 284°
2026-04-21 16:22 53.11363 -2.02251 8484 ft 226 kts 284°
2026-04-21 16:22 53.11780 -2.04732 8494 ft 225 kts 284°
2026-04-21 16:22 53.12197 -2.07224 8496 ft 224 kts 284°
2026-04-21 16:22 53.12615 -2.09723 8493 ft 225 kts 284°
2026-04-21 16:23 53.13038 -2.12249 8486 ft 228 kts 284°
2026-04-21 16:23 53.13466 -2.14806 8486 ft 229 kts 284°
2026-04-21 16:23 53.13890 -2.17353 8492 ft 228 kts 284°
2026-04-21 16:23 53.14332 -2.19904 8483 ft 229 kts 289°
2026-04-21 16:24 53.14987 -2.22240 8489 ft 222 kts 296°
2026-04-21 16:24 53.15691 -2.24508 8489 ft 225 kts 297°
2026-04-21 16:24 53.16400 -2.26854 8489 ft 228 kts 296°
2026-04-21 16:24 53.17109 -2.29213 8495 ft 227 kts 295°
2026-04-21 16:25 53.17797 -2.31582 8492 ft 228 kts 296°
2026-04-21 16:25 53.18503 -2.33953 8487 ft 229 kts 296°
2026-04-21 16:25 53.19215 -2.36334 8488 ft 230 kts 296°
2026-04-21 16:25 53.19925 -2.38710 8493 ft 230 kts 298°
2026-04-21 16:26 53.20638 -2.41086 8496 ft 227 kts 295°
2026-04-21 16:26 53.21325 -2.43446 8492 ft 225 kts 295°
2026-04-21 16:26 53.22007 -2.45750 8486 ft 224 kts 296°
2026-04-21 16:26 53.22695 -2.48069 8477 ft 224 kts 295°
2026-04-21 16:27 53.23383 -2.50395 8486 ft 224 kts 296°
2026-04-21 16:27 53.24071 -2.52731 8487 ft 225 kts 296°
2026-04-21 16:27 53.24768 -2.55079 8486 ft 226 kts 296°
2026-04-21 16:27 53.25456 -2.57412 8495 ft 226 kts 295°
2026-04-21 16:28 53.26149 -2.59770 8490 ft 226 kts 295°
2026-04-21 16:28 53.26842 -2.62124 8487 ft 226 kts 295°
2026-04-21 16:28 53.27536 -2.64485 8484 ft 226 kts 295°
2026-04-21 16:28 53.28221 -2.66815 8480 ft 226 kts 295°
2026-04-21 16:29 53.28913 -2.69177 8480 ft 226 kts 295°
2026-04-21 16:29 53.29606 -2.71542 8477 ft 227 kts 295°
2026-04-21 16:29 53.30287 -2.73918 8484 ft 227 kts 291°
2026-04-21 16:29 53.30842 -2.76385 8484 ft 227 kts 289°
2026-04-21 16:30 53.31400 -2.78859 8480 ft 227 kts 289°
2026-04-21 16:30 53.31960 -2.81323 8490 ft 227 kts 289°
2026-04-21 16:30 53.32518 -2.83784 8492 ft 226 kts 289°
2026-04-21 16:30 53.33067 -2.86213 8493 ft 226 kts 289°
2026-04-21 16:31 53.33622 -2.88675 8492 ft 226 kts 289°
2026-04-21 16:31 53.34176 -2.91135 8491 ft 226 kts 289°
2026-04-21 16:31 53.34730 -2.93588 8490 ft 225 kts 289°
2026-04-21 16:31 53.35281 -2.96038 8490 ft 225 kts 289°
2026-04-21 16:32 53.35830 -2.98485 8490 ft 225 kts 289°
2026-04-21 16:32 53.36380 -3.00938 8491 ft 225 kts 289°
2026-04-21 16:32 53.36921 -3.03354 8490 ft 225 kts 289°
2026-04-21 16:32 53.37478 -3.05841 8488 ft 226 kts 289°
2026-04-21 16:33 53.37990 -3.08133 8489 ft 226 kts 289°
2026-04-21 16:33 53.38541 -3.10600 8492 ft 226 kts 289°
2026-04-21 16:33 53.39100 -3.13054 8472 ft 226 kts 292°
2026-04-21 16:33 53.39945 -3.15251 8485 ft 223 kts 307°
2026-04-21 16:34 53.40854 -3.17348 8489 ft 223 kts 305°
2026-04-21 16:34 53.41753 -3.19480 8485 ft 223 kts 305°
2026-04-21 16:34 53.42652 -3.21593 8479 ft 223 kts 306°
2026-04-21 16:34 53.43557 -3.23712 8481 ft 224 kts 306°
2026-04-21 16:35 53.44451 -3.25809 8474 ft 224 kts 306°
2026-04-21 16:35 53.45370 -3.27970 8318 ft 231 kts 305°
2026-04-21 16:35 53.46310 -3.30182 8134 ft 235 kts 306°
2026-04-21 16:35 53.47266 -3.32434 7985 ft 237 kts 306°
2026-04-21 16:36 53.48210 -3.34655 7981 ft 232 kts 306°
2026-04-21 16:36 53.49140 -3.36850 7975 ft 229 kts 306°
2026-04-21 16:36 53.50063 -3.39026 7974 ft 228 kts 306°
2026-04-21 16:36 53.50980 -3.41191 7976 ft 227 kts 306°
2026-04-21 16:37 53.51879 -3.43315 7978 ft 226 kts 306°
2026-04-21 16:37 53.52787 -3.45463 7978 ft 225 kts 305°
2026-04-21 16:37 53.53691 -3.47604 7976 ft 225 kts 306°
2026-04-21 16:37 53.54593 -3.49742 7979 ft 224 kts 306°
2026-04-21 16:38 53.55495 -3.51881 7974 ft 224 kts 306°
2026-04-21 16:38 53.56395 -3.54019 7972 ft 224 kts 305°
2026-04-21 16:38 53.57296 -3.56159 7971 ft 223 kts 305°
2026-04-21 16:38 53.58191 -3.58286 7971 ft 223 kts 305°
2026-04-21 16:39 53.59075 -3.60391 7973 ft 223 kts 306°
2026-04-21 16:39 53.59971 -3.62525 7973 ft 223 kts 305°
2026-04-21 16:39 53.60865 -3.64657 7977 ft 223 kts 305°
2026-04-21 16:39 53.61761 -3.66794 7973 ft 223 kts 305°
2026-04-21 16:40 53.62660 -3.68943 7891 ft 228 kts 305°
2026-04-21 16:40 53.63584 -3.71153 7691 ft 233 kts 305°
2026-04-21 16:40 53.64525 -3.73405 7494 ft 236 kts 305°
2026-04-21 16:40 53.65476 -3.75683 7292 ft 239 kts 305°
2026-04-21 16:41 53.66432 -3.77975 7093 ft 239 kts 305°
2026-04-21 16:41 53.67392 -3.80276 6894 ft 240 kts 306°
2026-04-21 16:41 53.68338 -3.82547 6690 ft 240 kts 305°
2026-04-21 16:41 53.69299 -3.84858 6477 ft 241 kts 305°
2026-04-21 16:42 53.70262 -3.87175 6259 ft 241 kts 306°
2026-04-21 16:42 53.71225 -3.89494 6047 ft 241 kts 306°
2026-04-21 16:42 53.72187 -3.91814 5835 ft 241 kts 306°
2026-04-21 16:42 53.73141 -3.94113 5622 ft 238 kts 306°
2026-04-21 16:43 53.74085 -3.96393 5412 ft 236 kts 306°
2026-04-21 16:43 53.75025 -3.98663 5202 ft 235 kts 307°
2026-04-21 16:43 53.75949 -4.00898 4999 ft 235 kts 307°
2026-04-21 16:43 53.76870 -4.03127 4984 ft 229 kts 307°
2026-04-21 16:44 53.77775 -4.05320 4982 ft 226 kts 307°
2026-04-21 16:44 53.78672 -4.07493 4997 ft 224 kts 307°
2026-04-21 16:44 53.79560 -4.09648 4981 ft 223 kts 307°
2026-04-21 16:44 53.80446 -4.11800 4986 ft 223 kts 307°
2026-04-21 16:45 53.81329 -4.13948 4981 ft 222 kts 307°
2026-04-21 16:45 53.82211 -4.16094 4983 ft 222 kts 307°
2026-04-21 16:45 53.83094 -4.18243 4982 ft 222 kts 307°
2026-04-21 16:45 53.83974 -4.20389 4987 ft 222 kts 307°
2026-04-21 16:46 53.84845 -4.22515 4984 ft 223 kts 307°
2026-04-21 16:46 53.85729 -4.24674 4984 ft 223 kts 307°
2026-04-21 16:46 53.86614 -4.26835 4984 ft 223 kts 307°
2026-04-21 16:46 53.87497 -4.28996 4990 ft 223 kts 307°
2026-04-21 16:47 53.88382 -4.31161 4990 ft 223 kts 307°
2026-04-21 16:47 53.89264 -4.33323 4990 ft 223 kts 307°
2026-04-21 16:47 53.90146 -4.35485 4991 ft 223 kts 307°
2026-04-21 16:47 53.91162 -4.37423 4987 ft 218 kts 322°
2026-04-21 16:48 53.92304 -4.39043 4991 ft 217 kts 324°
2026-04-21 16:48 53.93463 -4.40689 4995 ft 218 kts 323°
2026-04-21 16:48 53.94626 -4.42399 4835 ft 225 kts 322°
2026-04-21 16:48 53.95814 -4.44155 4655 ft 229 kts 322°
2026-04-21 16:49 53.97020 -4.45935 4473 ft 230 kts 323°
2026-04-21 16:49 53.98229 -4.47718 4290 ft 230 kts 323°
2026-04-21 16:49 53.99439 -4.49503 4107 ft 230 kts 323°
2026-04-21 16:49 54.00641 -4.51277 4004 ft 226 kts 323°
2026-04-21 16:50 54.01813 -4.53009 3996 ft 221 kts 323°
2026-04-21 16:50 54.02945 -4.54682 3989 ft 217 kts 323°
2026-04-21 16:50 54.04081 -4.56361 3991 ft 215 kts 323°
2026-04-21 16:50 54.05206 -4.58031 3993 ft 214 kts 322°
2026-04-21 16:51 54.06114 -4.60066 4017 ft 220 kts 297°
2026-04-21 16:51 54.06531 -4.62588 4017 ft 224 kts 273°
2026-04-21 16:51 54.06377 -4.65211 4017 ft 223 kts 248°
2026-04-21 16:51 54.05688 -4.67516 4017 ft 216 kts 225°
2026-04-21 16:52 54.04759 -4.69526 4013 ft 216 kts 223°
2026-04-21 16:52 54.03836 -4.71543 4012 ft 216 kts 224°
2026-04-21 16:52 54.02931 -4.73515 4007 ft 209 kts 223°
2026-04-21 16:52 54.02078 -4.75387 3998 ft 192 kts 222°
2026-04-21 16:53 54.01290 -4.77102 3997 ft 179 kts 221°
2026-04-21 16:53 54.00542 -4.78722 4000 ft 171 kts 220°
2026-04-21 16:53 53.99792 -4.80327 3759 ft 176 kts 220°
2026-04-21 16:53 53.99037 -4.81996 3493 ft 179 kts 227°
2026-04-21 16:54 53.98560 -4.83881 3175 ft 171 kts 249°
2026-04-21 16:54 53.98436 -4.85858 2871 ft 167 kts 271°
2026-04-21 16:54 53.98646 -4.87737 2574 ft 162 kts 292°
2026-04-21 16:54 53.99108 -4.89309 2298 ft 155 kts 306°
2026-04-21 16:55 53.99803 -4.90635 2010 ft 145 kts 329°
2026-04-21 16:55 54.00572 -4.91511 1990 ft 124 kts 346°
2026-04-21 16:55 54.01323 -4.92007 1991 ft 110 kts 359°
2026-04-21 16:55 54.02039 -4.92220 1992 ft 100 kts 11°
2026-04-21 16:56 54.02707 -4.92216 1995 ft 93 kts 20°
2026-04-21 16:56 54.03335 -4.92026 1998 ft 93 kts 28°
2026-04-21 16:56 54.03958 -4.91647 2010 ft 97 kts 36°
2026-04-21 16:56 54.04556 -4.91075 2018 ft 100 kts 44°
2026-04-21 16:57 54.05093 -4.90326 2024 ft 102 kts 52°
2026-04-21 16:57 54.05548 -4.89419 2021 ft 100 kts 60°
2026-04-21 16:57 54.05894 -4.88407 2021 ft 98 kts 68°
2026-04-21 16:57 54.06126 -4.87323 2015 ft 97 kts 78°
2026-04-21 16:58 54.06224 -4.86189 2016 ft 96 kts 79°
2026-04-21 16:58 54.06321 -4.85064 2015 ft 96 kts 81°
2026-04-21 16:58 54.06419 -4.83940 2011 ft 96 kts 81°
2026-04-21 16:58 54.06511 -4.82833 2009 ft 94 kts 80°
2026-04-21 16:59 54.06600 -4.81739 2009 ft 93 kts 81°
2026-04-21 16:59 54.06694 -4.80671 2009 ft 92 kts 81°
2026-04-21 16:59 54.06785 -4.79601 2007 ft 91 kts 79°
2026-04-21 16:59 54.06873 -4.78558 1999 ft 83 kts 79°
2026-04-21 17:00 54.06953 -4.77558 1997 ft 86 kts 82°
2026-04-21 17:00 54.07044 -4.76510 1901 ft 95 kts 79°
2026-04-21 17:00 54.07110 -4.75751 1790 ft 97 kts 80°
2026-04-21 17:00 54.07229 -4.74281 1575 ft 91 kts 79°
2026-04-21 17:01 54.07322 -4.73242 1427 ft 87 kts 81°
2026-04-21 17:01 54.07404 -4.72252 1297 ft 83 kts 79°
2026-04-21 17:01 54.07484 -4.71279 1160 ft 83 kts 79°
2026-04-21 17:01 54.07568 -4.70308 1029 ft 82 kts 80°
2026-04-21 17:02 54.07649 -4.69370 905 ft 78 kts 78°
2026-04-21 17:02 54.07724 -4.68453 758 ft 77 kts 82°
2026-04-21 17:02 54.07793 -4.67553 625 ft 79 kts 88°
2026-04-21 17:02 54.07820 -4.66656 557 ft 74 kts 81°
2026-04-21 17:03 54.07900 -4.65795 433 ft 74 kts 73°
2026-04-21 17:03 54.08023 -4.64899 293 ft 78 kts 75°
2026-04-21 17:03 54.08120 -4.64006 139 ft 78 kts 78°
2026-04-21 17:03 54.08246 -4.63150 65 ft 70 kts 78°
2026-04-21 17:04 54.08325 -4.62415 56 ft 53 kts 74°
2026-04-21 17:04 54.08403 -4.61892 40 ft 39 kts 77°
2026-04-21 17:04 54.08452 -4.61505 40 ft 32 kts 72°
2026-04-21 17:04 54.08532 -4.61590 40 ft 27 kts 275°
2026-04-21 17:05 54.08555 -4.61938 41 ft 32 kts 262°
2026-04-21 17:05 54.08506 -4.62294 42 ft 27 kts 266°
2026-04-21 17:05 54.08462 -4.62566 40 ft 22 kts 254°
2026-04-21 17:05 54.08433 -4.62807 41 ft 19 kts 261°
2026-04-21 17:06 54.08449 -4.62983 41 ft 14 kts 335°
2026-04-21 17:06 54.08536 -4.63022 41 ft 12 kts 345°
2026-04-21 17:06 54.08599 -4.63048 41 ft 6 kts 342°
2026-04-21 17:06 54.08619 -4.63113 40 ft 8 kts 284°
2026-04-21 17:07 54.08626 -4.63145 40 ft 0 kts 302°
2026-04-21 17:07 54.08622 -4.63182 41 ft 0 kts 228°
2026-04-21 17:09 54.08602 -4.63189 40 ft 7 kts 187°
2026-04-21 17:09 54.08560 -4.63224 40 ft 6 kts 217°
2026-04-21 17:09 54.08532 -4.63281 40 ft 7 kts 258°
2026-04-21 17:10 54.08533 -4.63332 40 ft 4 kts 249°
2026-04-21 17:10 54.08516 -4.63349 40 ft 3 kts 193°
2026-04-21 17:10 54.08515 -4.63368 40 ft 7 kts 317°
2026-04-21 17:10 54.08537 -4.63397 40 ft 3 kts 325°
2026-04-21 17:11 54.08544 -4.63405 40 ft 7 kts 334°
2026-04-21 17:11 54.08561 -4.63406 40 ft 3 kts 25°
2026-04-21 17:11 54.08579 -4.63384 41 ft 2 kts 69°
2026-04-21 17:11 54.08599 -4.63351 41 ft 0 kts 31°